Regional Weather Roundup
Issued by NWS Lake Charles, LA

Home | Current Version | Previous Version | Text Only | Print | Product List | Glossary On
Versions: 1 2 3 4 5 6 7 8 9 10 11 12 13 14 15 16 17 18 19 20 21 22 23 24 25 26 27
000
ASUS44 KLCH 250710
RWRLCH
RWRLCH
REGIONAL WEATHER ROUNDUP
NATIONAL WEATHER SERVICE LAKE CHARLES LA
200 AM CDT FRI APR 25 2014

Note: "fair" indicates few or no clouds below 12,000 feet with no
significant weather and/or obstructions to visibility.


ACROSS SOUTHEAST TEXAS

CITY           SKY/WX    TMP DP  RH WIND       PRES   REMARKS
BEAUMONT       FOG       65  64  97 CALM      29.91F VSB 1/2
BEAUMONT CITY  FOG       65  65 100 SE3       29.92S VSB 3/4
ORANGE         SUNNY     67  67  99 CALM      29.93F
JASPER         CLOUDY    65  64  96 CALM      29.95R
$$

ACROSS CENTRAL LOUISIANA

CITY           SKY/WX    TMP DP  RH WIND       PRES   REMARKS
LEESVILLE      MOCLDY    68  66  94 N8        29.92R
FULLERTON      PTSUNNY   70  66  87 VRB5      29.90R
ALEXANDRIA INT MOCLDY    70  66  87 W6        29.89S
ESLER FIELD    CLOUDY    71  66  84 W12       29.90S
DERIDDER         N/A     67  65  94 CALM      29.93F
OAKDALE        SUNNY     67  66  95 CALM      29.90F FOG
OPELOUSAS        N/A     68  67  96 SW5       29.91S
$$

ACROSS SOUTHWEST AND SOUTH CENTRAL LOUISIANA

CITY           SKY/WX    TMP DP  RH WIND       PRES   REMARKS
SULPHUR        SUNNY     69  68  98 S3        29.92F
LAKE CHARLES   PTCLDY    69  67  93 SW5       29.91F
CHENNAULT INT  CLEAR     69  67  93 S5        29.92F
CAMERON PHI      N/A     72  70  94 SW5       29.92F
DEQUINCY         N/A     65  65  97 CALM      29.91S
JENNINGS         N/A     69  68  98 S3        29.91F
LAFAYETTE      CLOUDY    72  69  90 SW8       29.91F
NEW IBERIA     CLOUDY    73  68  84 SW5       29.93F
ABBEVILLE      CLOUDY   N/A N/A N/A SW5       29.92F
PATTERSON      MOCLDY    72  70  94 SW6       29.96S
SALT POINT       N/A     73  70  90 CALM      29.92F
$$

SELECTED SITES ACROSS THE REGION

CITY           SKY/WX    TMP DP  RH WIND       PRES   REMARKS
HOUSTON BUSH   PTCLDY    68  66  93 CALM      29.91S
HOUSTON HOBBY  MOCLDY    69  67  93 S6        29.91S
GALVESTON      CLOUDY    71  70  96 S6        29.92F
COLLEGE STAT   CLEAR     69  66  90 CALM      29.93S
CONROE         PTCLDY    64  64 100 CALM      29.93R
HUNTSVILLE     PTCLDY    69  66  90 SW3       29.94R
LUFKIN         FOG       66  63  90 CALM      29.92S VSB 3/4
SHREVEPORT     CLEAR     66  51  58 N10       29.92R
MONROE         CLEAR     65  63  93 W7        29.90S
NATCHEZ MS     CLOUDY    70  64  83 SW6       29.90F
BATON ROUGE    CLOUDY    72  67  84 SW8       29.91F
N.O. INTL ARPT CLOUDY    71  68  90 SW7       29.92F
SLIDELL        CLOUDY    72  67  84 CALM      29.92S
$$

MARINE REPORTS

STATION/POSITION TIME  TEMP    WIND        PRES    VSBY  WAVE
                       AIR SEA DIR/SP/G                  HT/PER
                 (UTC) (F)     (DEG/KT/KT) (MB)    (MI)  (FT/S)
BUOY 30 S HIGH I 0700   70 70  170/  4/  4 1012.8F         3/ 6
SEA RIM ST PARK  0700   71     210/  4/  4 1013.4F
PORT ARTHUR      0700      72  180/  2/  3 1013.1F
SABINE PASS N    0700   70 71  200/  3/  4 1013.0F
TEXAS POINT      0700   70 72  200/  4/  4 1013.3F
CALCASIEU PASS   0700   72 74  240/  5/  6 1014.1F
LK CHARLES BEACH 0700   70 75              1013.5F
MARSH ISLAND     0600   73     230/  3/  7   N/A
FRESH WATER LOCK 0700   72 76  210/  4/  7 1013.4F
AMERADA PASS     0700   71 66  190/  2/  4 1013.3F
$$



USA.gov is the U.S. government's official web portal to all federal, state and local government web resources and services.